COSMOS 1275 DEB, 42164

Orbit data source: Space-Track

COSMOS 1275 DEB, 42164 is space debris in LEO originally from a launch on Thu, 04 Jun 1981 UTC launched from the Plesetsk Missile And Space Complex (PKMTR). Debris objects in space refer to the collection of defunct objects orbiting the Earth. Examples of debris include non-operational satellites, rocket bodies, and fragments generated from explosions, collisions, or faulty payload assembly.

Loading next visibility...
Identifier
42164, 1981-053SC
Orbit
LEO
Country
Flag of CISCIS
Related business
Manufacturer
Unknown
Mission
Spacecraft
Bus & Motor
Unknown
Mass
Unknown
Launch date (UTC)
1981-06-04 (44 years ago)
Launch vehicle
Unknown
Launch site
Plesetsk Missile And Space Complex (PKMTR)
Object type
Payload
Rocket body
Debris
Shape & HBR
Unknown shape, 0.1 m
Radar Cross Section
Small (<0.1 m²)

Expand to show TLE details & history
Last TLE update: 2 weeks ago

TLE from 2 weeks ago
0 COSMOS 1275 DEB
1 42164U 81053SC  25274.51232539  .00029975  00000-0  71239-2 0  9990
2 42164  82.9214 198.2034 0023842 109.2630 251.1152 14.53554804617912
Epoch: 2025-10-01T12:17Z
TLE epoch observation values (Epoch: 2025-10-01T12:17:44.913Z)
Latitude
-0.00002°
Longitude
3.27999°
Altitude
722.58 km
Speed
7.491 km/s
True Right ascension
13h 12m 48s
True Declination
0° 00' 00"
Sunlit
Object was in daylight at epoch
Visualization orbit readout
Latitude
Unknown
Longitude
Unknown
Altitude
Unknown
Speed
Unknown
Apparent Right ascension
Unknown
Apparent Declination
Unknown
Sunlit
N/A
Visualization observer readout
Local Sidereal Time
02:59:45
Azimuth
Unknown
Elevation
Unknown
Doppler factor
Unknown
Orbital elements
Apogee altitude
728.006 km
Perigee altitude
694.201 km
Semi-major axis
7,089.241 km
Eccentricity
0.00238
Inclination
82.9214°
RAAN
198.2034°
Arg. of periapsis
109.263°
True anomaly
250.85695°
Mean anomaly
251.1152°
Eccentric anomaly
250.98605°
Mean motion
3.63617 °/min
Orbital period
99.01 mins
BSTAR
0.0071239
Loading maneuver chart data...
Computing Atmospheric mass density...

Documentation

Showing up to 5 results
|